Regional Weather Roundup
Issued by NWS

Home | Current Version | Previous Version | Text Only | Print | Product List | Glossary Off
Versions: 1 2 3 4 5 6 7 8 9 10 11 12 13 14 15 16 17 18 19 20 21 22 23 24 25 26 27 28 29 30 31 32 33 34 35 36 37 38 39 40 41 42 43 44 45 46 47 48 49 50

000
ASUS43 KLSX 181107
RWRMO

WEATHER SUMMARY FOR MISSOURI
NATIONAL WEATHER SERVICE SPRINGFIELD MO
500 AM CST WED JAN 18 2017

NOTE: "FAIR" INDICATES FEW OR NO CLOUDS BELOW 12,000 FEET WITH NO
       SIGNIFICANT WEATHER AND/OR OBSTRUCTIONS TO VISIBILITY.
       CURRENT SKY AND/OR WEATHER CONDITIONS ARE NOT AVAILABLE FOR
       CHILLICOTHE AND FARMINGTON.

MOZ001>031-035>038-043-044-053-054-181200-
...NORTHERN AND WESTERN MISSOURI...

CITY           SKY/WX    TMP DP  RH WIND       PRES   REMARKS
KANSAS CTY INT CLOUDY    28  26  92 S8        30.14R FOG     WCI  20
KANSAS C DTWN  CLOUDY    30  29  96 SW5       30.15S WCI  25
LEE`S SUMMIT   FOG       31  31 100 S7        30.16R VSB 1/4 WCI  24
ST JOSEPH      FOG       28  28 100 S7        30.13F VSB 1/4 WCI  21
CHILLICOTHE      N/A     33  33 100 SW3       30.15S
KIRKSVILLE     CLOUDY    32  31  96 CALM      30.13F

$$
MOZ066>068-077>081-088>096-101>105-181200-
...SOUTHWEST MISSOURI...

CITY           SKY/WX    TMP DP  RH WIND       PRES   REMARKS
SPRINGFIELD    FOG       36  35  96 S3        30.16S VSB 1/2
JOPLIN         FOG       36  36 100 SE6       30.18R VSB 1/4
BRANSON        FOG       36  36 100 CALM      30.18R VSB 1/4

$$
MOZ032>034-039>042-045>050-055>058-069>072-181200-
...CENTRAL MISSOURI...

CITY           SKY/WX    TMP DP  RH WIND       PRES   REMARKS
COLUMBIA       CLOUDY    36  33  89 SW3       30.19R
JEFFERSON CITY CLOUDY    37  31  78 W3        30.21R
ROLLA          CLOUDY    35  32  88 W5        30.17R
SEDALIA        CLOUDY    37  36  96 SW6       30.19R FOG
WHITEMAN AFB   CLOUDY    36  36 100 SW9       30.16S WCI  29
WARRENSBURG    CLOUDY    36  34  93 SW6       30.17S FOG
OSAGE BEACH    CLOUDY    37  34  89 CALM      30.20R

$$
MOZ051-052-059>065-181200-
...EAST CENTRAL MISSOURI...

CITY           SKY/WX    TMP DP  RH WIND       PRES   REMARKS
ST LOUIS INTL  CLOUDY    39  33  79 NW5       30.19R
SPIRIT OF STL  CLOUDY    38  33  82 W3        30.20R
ST CHARLES     CLOUDY    37  33  85 NW5       30.19S

$$
MOZ072>076-082>087-097>100-106>115-181200-
...SOUTH CENTRAL AND SOUTHEAST MISSOURI...

CITY           SKY/WX    TMP DP  RH WIND       PRES   REMARKS
CAPE GIRARDEAU CLOUDY    40  35  83 N9        30.20S
FARMINGTON     CLOUDY    37  34  89 NW5       30.20R
POPLAR BLUFF   CLOUDY    42  38  85 N5        30.20R
WEST PLAINS    FOG       36  35  96 N5        30.17F VSB 3/4

$$



USA.gov is the U.S. government's official web portal to all federal, state and local government web resources and services.